STARLINK-35894

Last updated on Tue Dec 16 2025 00:02:05 GMT+0000 (Coordinated Universal Time)

1 66500U 25263R 25349.33335648 -.02156453 00000+0 -78289-1 0 9995 2 66500 43.0000 110.5431 0001187 258.4724 257.7464 15.31127352 6056
UTC large
Height (km)
Speed (km/s)
/
Latitude / Longitude
Inclination (degrees)
Orbital Period (minutes)
Azimuth
Elevation
Range (km)
Doppler Factor

Next 0 passes for location: London (51.5072 / 0.1276)

Sorry there are no passes over London.